Tracking 30918 objects as of 2-Jul-2025
HD Live streaming from Space Station
objects crossing your sky now

OPTUS B1 R/B(STAR 63F)

Track OPTUS B1 R/B(STAR 63F) now!


NORAD ID: 22089
Int'l Code: 1992-054C
Perigee: 383.5 km
Apogee: 36,173.8 km
Inclination: 23.6 °
Period: 641.9 minutes
Semi major axis: 24649 km
RCS: 6.8742 m2 (large)
Launch date: August 13, 1992
Source: Australia (AUS)
Launch site: Xichang Space Center, China (XSC)

Note: This is a ROCKET BODY
Your satellite tracking list
Your tracking list is empty




NASA's NSSDC Master Catalog

Two Line Element Set (TLE):
1 22089U 92054C   25182.36243711  .00000580  00000-0  16981-2 0  9996
2 22089  23.6104 337.3856 7259787 113.9524 334.2078  2.24329731265074
Source of the keplerian elements: AFSPC